K3GM Weather Reports


Display with metric or nautical units.
time (UTC)temp
F
wind
direction
speed
MPH
gust
MPH
rain 1hr
in
rain 24hr
in
rain mn
in
humidity
%
barometer
mb
20260905213039 79 0 0.0 0.0 0.00 0.00 0.00 54 1010.8
20260905211546 79 0 0.0 0.0 0.00 0.00 0.00 46 1010.7
20260905210042 79 0 0.0 0.0 0.00 0.00 0.00 56 1010.7
20260905204542 79 0 0.0 0.0 0.00 0.00 0.00 48 1010.5
20260905203049 79 0 0.0 0.0 0.00 0.00 0.00 56 1010.6
20260905201543 79 0 0.0 0.0 0.00 0.00 0.00 48 1010.7
20260905200044 80 0 0.0 0.0 0.00 0.00 0.00 53 1010.8
20260905194539 79 0 0.0 0.0 0.00 0.00 0.00 57 1010.9
20260905193102 79 0 0.0 0.0 0.00 0.00 0.00 50 1011.0
20260905191542 79 0 0.0 0.0 0.00 0.00 0.00 48 1011.0
20260905190043 79 0 0.0 0.0 0.00 0.00 0.00 49 1011.1
20260905184545 79 0 0.0 0.0 0.00 0.00 0.00 47 1011.1
20260905183046 79 0 0.0 0.0 0.00 0.00 0.00 48 1011.1
20260905181544 79 0 0.0 0.0 0.00 0.00 0.00 52 1011.3
20260905180041 80 0 0.0 0.0 0.00 0.00 0.00 46 1011.5
20260905174541 80 0 0.0 0.0 0.00 0.00 0.00 43 1011.4
20260905173044 79 0 0.0 0.0 0.00 0.00 0.00 46 1011.6
20260905171542 79 0 0.0 0.0 0.00 0.00 0.00 45 1011.5
20260905170041 79 0 0.0 0.0 0.00 0.00 0.00 45 1011.8
20260905164540 79 0 0.0 0.0 0.00 0.00 0.00 46 1011.7
20260905163036 80 0 0.0 0.0 0.00 0.00 0.00 46 1012.0
20260905161543 79 0 0.0 0.0 0.00 0.00 0.00 47 1012.0
20260905160042 79 0 0.0 0.0 0.00 0.00 0.00 49 1012.0
20260905154549 79 0 0.0 0.0 0.00 0.00 0.00 55 1012.0
20260905153043 79 0 0.0 0.0 0.00 0.00 0.00 51 1012.0
20260905151543 78 0 0.0 0.0 0.00 0.00 0.00 52 1012.1
20260905150040 77 0 0.0 0.0 0.00 0.00 0.00 55 1012.0
20260905144544 77 0 0.0 0.0 0.00 0.00 0.00 57 1011.9
20260905143043 76 0 0.0 0.0 0.00 0.00 0.00 59 1011.8
20260905141542 76 0 0.0 0.0 0.00 0.00 0.00 66 1012.0
20260905140041 75 0 0.0 0.0 0.00 0.00 0.00 70 1011.6
20260905134545 74 0 0.0 0.0 0.00 0.00 0.00 71 1011.7
20260905133043 75 0 0.0 0.0 0.00 0.00 0.00 63 1011.5
20260905131542 73 0 0.0 0.0 0.00 0.00 0.00 66 1011.5
20260905130043 72 0 0.0 0.0 0.00 0.00 0.00 73 1011.6
20260905124543 72 0 0.0 0.0 0.00 0.00 0.00 72 1011.8
20260905123039 72 0 0.0 0.0 0.00 0.00 0.00 72 1012.0
20260905121541 72 0 0.0 0.0 0.00 0.00 0.00 72 1012.0
20260905120042 72 0 0.0 0.0 0.00 0.00 0.00 71 1012.0
20260905114540 72 0 0.0 0.0 0.00 0.00 0.00 71 1011.7
20260905113041 72 0 0.0 0.0 0.00 0.00 0.00 72 1011.6
20260905111536 73 0 0.0 0.0 0.00 0.00 0.00 72 1011.6
20260905110042 73 0 0.0 0.0 0.00 0.00 0.00 71 1011.5
20260905104542 73 0 0.0 0.0 0.00 0.00 0.00 71 1011.2
20260905103044 73 0 0.0 0.0 0.00 0.00 0.00 73 1011.1
20260905101540 73 0 0.0 0.0 0.00 0.00 0.00 65 1011.1
20260905100040 73 0 0.0 0.0 0.00 0.00 0.00 71 1011.0
20260905094540 73 0 0.0 0.0 0.00 0.00 0.00 64 1010.9
20260905093048 73 0 0.0 0.0 0.00 0.00 0.00 74 1011.0
20260905091543 73 0 0.0 0.0 0.00 0.00 0.00 69 1011.0
20260905090044 73 0 0.0 0.0 0.00 0.00 0.00 76 1011.1
20260905084541 73 0 0.0 0.0 0.00 0.00 0.00 76 1011.0
20260905083040 73 0 0.0 0.0 0.00 0.00 0.00 76 1010.7
20260905081544 73 0 0.0 0.0 0.00 0.00 0.00 75 1010.8
20260905080047 74 0 0.0 0.0 0.00 0.00 0.00 75 1010.9
20260905074541 74 0 0.0 0.0 0.00 0.00 0.00 76 1010.7
20260905073039 74 0 0.0 0.0 0.00 0.00 0.00 77 1010.7
20260905071538 74 0 0.0 0.0 0.00 0.00 0.00 77 1010.9
20260905070041 73 0 0.0 0.0 0.00 0.00 0.00 79 1011.0
20260905064545 73 0 0.0 0.0 0.00 0.00 0.00 82 1010.9
20260905063039 73 0 0.0 0.0 0.00 0.00 0.00 84 1011.2
20260905061542 73 0 0.0 0.0 0.00 0.00 0.00 84 1011.2
20260905060046 73 0 0.0 0.0 0.00 0.00 0.00 85 1011.4
20260905054538 73 0 0.0 0.0 0.00 0.00 0.00 85 1011.4
20260905053037 74 0 0.0 0.0 0.00 0.00 0.00 84 1011.4
20260905051540 74 0 0.0 0.0 0.00 0.00 0.00 82 1011.6
20260905050039 74 0 0.0 0.0 0.00 0.00 0.00 83 1011.9
20260905044544 74 0 0.0 0.0 0.00 0.00 0.00 81 1011.6
20260905043050 75 0 0.0 0.0 0.00 0.00 0.00 81 1011.7
20260905041541 77 0 0.0 0.0 0.00 0.00 0.00 80 1011.6
20260905040053 78 0 0.0 0.0 0.00 0.00 0.00 77 1011.7
20260905034542 78 0 0.0 0.0 0.00 0.00 0.00 77 1011.7
20260905033037 78 0 0.0 0.0 0.00 0.00 0.00 75 1011.6
20260905031542 79 0 0.0 0.0 0.00 0.00 0.00 74 1011.7
20260905030038 79 0 0.0 0.0 0.00 0.00 0.00 75 1011.5
20260905024539 79 0 0.0 0.0 0.00 0.00 0.00 75 1011.6
20260905023041 79 0 0.0 0.0 0.00 0.00 0.00 76 1011.7
20260905021538 80 0 0.0 0.0 0.00 0.00 0.00 75 1011.6
20260905020048 80 0 0.0 0.0 0.00 0.00 0.00 74 1011.5
20260905014542 80 0 0.0 0.0 0.00 0.00 0.00 74 1011.5
20260905013048 79 0 0.0 0.0 0.00 0.00 0.00 76 1011.5
20260905011619 79 0 0.0 0.0 0.00 0.00 0.00 75 1011.7
20260905010043 79 0 0.0 0.0 0.00 0.00 0.00 76 1011.7
20260905004543 79 0 0.0 0.0 0.00 0.00 0.00 74 1011.5
20260905003044 80 0 0.0 0.0 0.00 0.00 0.00 73 1011.3
20260905001552 81 0 0.0 0.0 0.00 0.00 0.00 71 1011.1
20260905000045 82 0 0.0 0.0 0.00 0.00 0.00 69 1011.1
20260904234542 82 0 0.0 0.0 0.00 0.00 0.00 67 1011.1
20260904233044 82 0 0.0 0.0 0.00 0.00 0.00 67 1011.0
20260904231542 83 0 0.0 0.0 0.00 0.00 0.00 60 1011.1
20260904230043 83 0 0.0 0.0 0.00 0.00 0.00 66 1011.1
20260904224540 83 0 0.0 0.0 0.00 0.00 0.00 65 1011.3
20260904223044 84 0 0.0 0.0 0.00 0.00 0.00 57 1011.1
20260904221544 84 0 0.0 0.0 0.00 0.00 0.00 64 1011.4
20260904220043 84 0 0.0 0.0 0.00 0.00 0.00 57 1011.4
20260904214541 84 0 0.0 0.0 0.00 0.00 0.00 55 1011.5